TimeCET,TemperatureF,Dew PointF,Humidity,Sea Level PressureIn,VisibilityMPH,Wind Direction,Wind SpeedMPH,Gust SpeedMPH,PrecipitationIn,Events,Conditions,WindDirDegrees,DateUTC
12:30 AM,42.8,37.4,81,30.24,-9999.0,East,3.5,-,N/A,,Clear,90,2013-02-13 23:30:00
1:00 AM,43,35,66,30.30,19,SSE,3.5,,,,,160,2013-02-14 00:00:00
1:00 AM,44.6,37.4,76,30.24,-9999.0,ESE,3.5,-,N/A,,Clear,110,2013-02-14 00:00:00
1:30 AM,41.0,35.6,81,30.24,-9999.0,Calm,Calm,-,N/A,,Clear,0,2013-02-14 00:30:00
2:00 AM,41.0,37.4,87,30.24,-9999.0,Variable,2.3,-,N/A,,Clear,0,2013-02-14 01:00:00
2:30 AM,41.0,37.4,87,30.24,-9999.0,South,3.5,-,N/A,,Clear,170,2013-02-14 01:30:00
3:00 AM,39.2,35.6,87,30.24,-9999.0,Variable,1.2,-,N/A,,Clear,0,2013-02-14 02:00:00
3:30 AM,37.4,35.6,93,30.24,-9999.0,North,3.5,-,N/A,,Clear,10,2013-02-14 02:30:00
4:00 AM,35.6,33.8,93,30.24,-9999.0,NNW,4.6,-,N/A,,Clear,340,2013-02-14 03:00:00
4:30 AM,37.4,35.6,93,30.24,-9999.0,NNW,3.5,-,N/A,,Clear,340,2013-02-14 03:30:00
5:00 AM,35.6,35.6,100,30.24,-9999.0,North,3.5,-,N/A,,Clear,10,2013-02-14 04:00:00
5:30 AM,33.8,33.8,100,30.21,-9999.0,Variable,2.3,-,N/A,,Clear,0,2013-02-14 04:30:00
6:00 AM,33.8,33.8,100,30.24,-9999.0,North,2.3,-,N/A,,Clear,360,2013-02-14 05:00:00
6:30 AM,33.8,33.8,100,30.24,-9999.0,North,3.5,-,N/A,,Clear,360,2013-02-14 05:30:00
7:00 AM,32,30,91,30.34,6,North,4.6,,,,,0,2013-02-14 06:00:00
7:00 AM,33.8,33.8,100,30.24,-9999.0,North,3.5,-,N/A,,Clear,360,2013-02-14 06:00:00
7:30 AM,32.0,32.0,100,30.24,-9999.0,North,3.5,-,N/A,,Clear,360,2013-02-14 06:30:00
8:00 AM,32.0,32.0,100,30.24,-9999.0,North,2.3,-,N/A,,Clear,360,2013-02-14 07:00:00
8:30 AM,33.8,33.8,100,30.24,-9999.0,Calm,Calm,-,N/A,,Clear,0,2013-02-14 07:30:00
9:00 AM,35.6,35.6,100,30.24,-9999.0,SSE,1.2,-,N/A,,Clear,160,2013-02-14 08:00:00
9:30 AM,35.6,35.6,100,30.27,-9999.0,NW,1.2,-,N/A,,Clear,320,2013-02-14 08:30:00
10:00 AM,39.2,37.4,93,30.24,-9999.0,Variable,1.2,-,N/A,,Clear,0,2013-02-14 09:00:00
10:30 AM,41.0,37.4,87,30.24,-9999.0,Variable,2.3,-,N/A,,Clear,0,2013-02-14 09:30:00
11:00 AM,44.6,37.4,76,30.24,-9999.0,NNW,1.2,-,N/A,,Clear,330,2013-02-14 10:00:00
11:30 AM,48.2,37.4,66,30.24,-9999.0,Variable,1.2,-,N/A,,Clear,0,2013-02-14 10:30:00
12:00 PM,50.0,37.4,62,30.27,-9999.0,Variable,1.2,-,N/A,,Clear,0,2013-02-14 11:00:00
12:30 PM,51.8,37.4,58,30.24,-9999.0,ENE,1.2,-,N/A,,Clear,60,2013-02-14 11:30:00
1:00 PM,54,38,43,30.24,12,South,3.5,,,,,190,2013-02-14 12:00:00
1:00 PM,53.6,37.4,54,30.24,-9999.0,South,3.5,-,N/A,,Clear,170,2013-02-14 12:00:00
1:30 PM,55.4,37.4,51,30.21,-9999.0,SW,2.3,-,N/A,,Clear,220,2013-02-14 12:30:00
2:00 PM,55.4,39.2,54,30.21,-9999.0,South,2.3,-,N/A,,Clear,170,2013-02-14 13:00:00
2:30 PM,57.2,37.4,48,30.18,-9999.0,Variable,3.5,-,N/A,,Clear,0,2013-02-14 13:30:00
3:00 PM,57.2,37.4,48,30.18,-9999.0,SSE,2.3,-,N/A,,Clear,160,2013-02-14 14:00:00
3:30 PM,57.2,37.4,48,30.18,-9999.0,SSE,2.3,-,N/A,,Clear,150,2013-02-14 14:30:00
4:00 PM,59.0,39.2,48,30.15,-9999.0,South,3.5,-,N/A,,Clear,180,2013-02-14 15:00:00
4:30 PM,59.0,41.0,51,30.15,-9999.0,SE,5.8,-,N/A,,Clear,140,2013-02-14 15:30:00
5:00 PM,59.0,37.4,45,30.15,-9999.0,SSE,4.6,-,N/A,,Clear,160,2013-02-14 16:00:00
5:30 PM,59.0,37.4,45,30.15,-9999.0,SSE,4.6,-,N/A,,Clear,160,2013-02-14 16:30:00
6:00 PM,57.2,41.0,55,30.15,-9999.0,SSE,4.6,-,N/A,,Clear,160,2013-02-14 17:00:00
6:30 PM,55.4,39.2,54,30.15,-9999.0,SSE,4.6,-,N/A,,Clear,150,2013-02-14 17:30:00
7:00 PM,54,37,40,30.16,19,SE,4.6,,,,,140,2013-02-14 18:00:00
7:00 PM,53.6,37.4,54,30.15,-9999.0,SE,3.5,-,N/A,,Clear,130,2013-02-14 18:00:00
7:30 PM,53.6,37.4,54,30.15,-9999.0,Variable,2.3,-,N/A,,Clear,0,2013-02-14 18:30:00
8:00 PM,51.8,37.4,58,30.15,-9999.0,Variable,2.3,-,N/A,,Clear,0,2013-02-14 19:00:00
8:30 PM,51.8,37.4,58,30.18,-9999.0,Variable,2.3,-,N/A,,Clear,0,2013-02-14 19:30:00
9:00 PM,48.2,37.4,66,30.15,-9999.0,Variable,2.3,-,N/A,,Clear,0,2013-02-14 20:00:00
9:30 PM,46.4,37.4,71,30.18,-9999.0,North,1.2,-,N/A,,Clear,10,2013-02-14 20:30:00
10:00 PM,44.6,37.4,76,30.18,-9999.0,North,4.6,-,N/A,,Clear,10,2013-02-14 21:00:00
10:30 PM,42.8,37.4,81,30.18,-9999.0,NNW,4.6,-,N/A,,Clear,340,2013-02-14 21:30:00
11:00 PM,42.8,35.6,76,30.18,-9999.0,NNW,4.6,-,N/A,,Clear,330,2013-02-14 22:00:00
11:30 PM,42.8,35.6,76,30.18,-9999.0,North,4.6,-,N/A,,Clear,360,2013-02-14 22:30:00